SCP
2 2 1 1 1 1 1 0 0 0 0 0 0 0 0 0 0 0 0 0 0 0 0 0 0 0 0 0 0 0 0 0 0 0 0 0 0 0 0 0 0 0 0
2 2 1 1 1 1 1 1 0 0 0 0 0 0 0 0 0 0 0 0 0 0 0 0 0 0 0 0 0 0 0 0 0 0 0 0 0 0 0 0 0 0 0
2 2 1 1 1 1 1 1 0 0 0 0 0 0 0 0 0 0 0 0 0 0 0 0 0 0 0 0 0 0 0 0 0 0 0 0 0 0 0 0 0 0 0
2 2 1 1 1 1 0 0 0 0 0 0 0 0 0 0 0 0 0 0 0 0 0 0 0 0 0 0 0 0 0 0 0 0 0 0 0 0 0 0 0 0 0
2 2 1 1 1 1 0 0 0 0 0 0 0 0 0 0 0 0 0 0 0 0 0 0 0 0 0 0 0 0 0 0 0 0 0 0 0 0 0 0 0 0 0
1 1 1 1 1 1 1 0 0 0 0 0 0 0 0 0 0 0 0 0 0 0 0 0 0 0 0 0 0 0 0 0 0 0 0 0 0 0 0 0 0 0 0
1 1 1 1 1 1 1 0 0 0 0 0 0 0 0 0 0 0 0 0 0 0 0 0 0 0 0 0 0 0 0 0 0 0 0 0 0 0 0 0 0 0 0
1 1 1 1 1 1 1 1 1 0 0 0 0 0 0 0 0 0 0 0 0 0 0 0 0 0 0 0 0 0 0 0 0 0 0 0 0 0 0 0 0 0 0
1 1 1 1 1 1 1 1 1 1 0 0 0 0 0 0 0 0 0 0 0 0 0 0 0 0 1 1 1 1 0 0 0 0 0 0 0 0 0 0 0 0 0
2 2 1 1 1 1 1 1 1 1 1 0 0 0 0 0 0 0 0 0 0 0 0 0 0 1 1 1 1 1 0 0 0 0 0 1 1 1 0 0 0 0 0
1 1 2 2 2 1 1 1 1 1 1 1 1 1 0 0 0 0 0 0 0 0 0 0 1 1 1 1 1 1 1 0 0 0 0 0 1 1 1 1 0 0 1
1 1 1 2 2 2 2 2 2 1 1 1 1 1 1 1 1 0 0 0 0 0 0 0 1 1 1 1 1 1 0 0 0 0 0 0 0 1 1 1 1 1 1
1 1 1 1 2 2 2 2 2 2 1 1 1 1 1 1 1 1 1 1 0 0 1 1 1 1 1 1 1 0 0 0 0 0 0 0 0 0 1 1 1 1 1
1 1 1 1 1 2 2 2 2 1 2 2 1 1 1 1 1 1 1 1 1 1 1 1 1 1 1 1 1 0 0 0 0 0 0 0 0 0 0 0 1 1 1
1 1 1 1 1 2 2 2 2 1 2 2 1 1 1 1 1 1 1 1 1 1 1 1 1 1 1 1 1 1 1 0 0 0 0 0 0 0 0 0 0 0 0
2 2 1 1 1 2 2 2 2 2 2 2 2 1 1 1 2 2 2 2 2 1 1 1 1 2 2 1 1 1 1 1 0 0 0 0 0 0 0 0 0 0 0
2 2 1 1 1 2 2 2 2 2 2 1 1 1 1 2 2 2 2 2 2 2 2 1 1 2 2 2 2 1 1 1 1 0 0 0 0 0 0 0 0 0 0
2 2 2 2 2 2 2 3 2 2 2 2 1 1 1 2 2 2 2 2 2 2 2 2 2 2 3 2 2 1 1 1 1 0 0 0 0 0 0 0 0 0 0
2 2 2 2 2 2 2 2 2 2 2 2 2 2 2 1 1 1 1 1 1 2 2 2 2 2 2 2 2 1 1 1 1 1 0 0 0 0 0 0 0 0 0
3 3 2 2 2 2 2 2 2 2 2 2 2 2 2 1 1 1 1 1 1 1 2 2 1 1 1 1 1 1 1 1 1 1 1 1 0 0 0 0 0 0 0
4 3 3 3 3 2 2 2 2 2 2 2 2 2 2 1 1 1 1 1 1 1 1 1 1 1 1 1 1 1 1 1 1 1 2 1 1 1 1 0 0 0 0
4 4 3 3 2 2 1 1 1 1 1 2 2 2 2 1 1 0 0 0 1 1 1 1 1 1 1 1 1 1 1 1 1 1 2 2 1 1 1 1 0 0 0
3 3 2 2 1 1 0 0 1 1 1 1 2 2 2 2 1 1 0 0 0 0 0 1 1 1 1 1 1 1 1 1 1 1 2 2 2 1 1 1 0 0 0
2 2 2 1 1 1 0 0 0 1 1 1 2 2 2 2 1 1 1 1 1 1 0 0 1 1 1 1 1 1 1 1 1 1 2 2 2 2 1 1 1 0 0
1 1 1 1 1 1 0 0 0 0 1 1 1 1 1 1 1 0 1 1 1 1 0 0 0 0 0 0 1 1 1 1 1 1 2 2 2 2 2 2 1 1 0
1 1 1 1 1 1 0 0 0 0 1 1 1 1 0 0 0 0 0 1 1 1 0 0 0 0 0 0 0 0 0 0 1 1 1 1 1 1 1 2 1 1 1
Wind_Speed
5 5 3 3 4 4 5 3 3 4 3 4 4 4 3 3 4 4 7 9 7 7 7 7 7 7 7 7 7 7 7 8 8 7 7 7 7 7 7 7 6 6 5
5 5 5 4 3 3 3 3 4 4 3 3 3 4 4 4 4 3 5 8 8 7 6 7 7 7 7 7 7 8 8 8 8 7 7 7 7 7 6 6 6 6 5
6 5 5 5 4 4 4 3 3 3 4 4 3 3 3 3 4 3 3 4 7 9 7 7 7 6 7 7 7 8 8 8 8 8 8 7 7 7 7 7 7 6 6
7 6 5 5 4 4 4 4 4 3 3 3 3 3 3 3 4 4 4 4 3 5 8 8 7 7 7 7 8 8 8 9 9 9 9 8 8 7 7 7 7 7 7
8 7 5 4 5 4 4 4 4 3 4 3 4 4 3 3 4 4 4 4 5 4 4 8 8 7 8 8 8 8 9 9 9 10 10 10 9 9 8 8 8 7 7
8 7 5 6 6 5 4 3 3 3 3 4 3 3 3 2 4 4 5 5 5 5 5 5 7 8 10 8 8 9 9 10 10 10 11 11 11 10 9 9 9 8 8
9 7 6 6 6 5 5 6 5 6 5 3 3 4 4 5 4 4 4 4 5 5 4 5 5 4 6 11 10 9 9 10 10 11 11 11 11 10 10 10 10 9 9
9 8 8 6 7 5 6 6 5 4 4 4 4 3 4 5 5 5 5 5 5 5 6 7 5 5 5 4 7 10 10 10 10 11 11 10 11 10 10 11 10 10 10
10 9 8 8 7 7 7 7 7 7 5 5 4 4 3 2 4 5 5 5 5 4 5 5 6 6 7 5 5 10 10 9 10 11 11 11 10 10 10 11 11 11 11
10 9 9 9 8 7 6 8 8 6 6 5 4 4 4 3 3 2 5 6 6 6 5 5 6 7 7 6 5 4 9 9 10 11 11 11 11 11 11 12 12 12 12
10 10 9 8 8 7 7 7 6 7 6 6 5 4 4 3 5 4 2 3 5 5 5 6 5 5 6 6 5 7 10 10 10 10 10 10 11 11 12 12 13 13 12
8 10 10 9 9 7 7 7 7 8 7 6 5 5 4 4 5 4 4 4 4 4 4 4 5 5 5 6 7 7 9 9 10 10 10 10 10 11 12 12 13 13 13
8 10 10 9 8 8 8 8 8 7 8 7 7 6 5 5 4 4 4 4 3 3 4 5 5 4 5 5 5 8 9 10 10 10 10 10 10 11 11 11 12 12 12
8 9 10 10 10 9 9 8 8 8 7 7 7 6 5 5 5 5 4 4 4 4 5 5 4 4 4 5 3 7 7 11 11 10 10 10 10 10 10 10 10 11 11
7 9 10 10 10 10 9 9 7 7 7 8 7 7 6 5 5 5 4 5 5 5 4 4 4 4 4 4 3 6 7 8 10 10 10 10 10 10 10 10 10 10 10
8 8 9 10 10 9 9 9 7 7 7 7 5 5 6 6 5 5 5 5 5 6 6 2 3 2 1 3 4 5 6 6 8 9 9 10 10 10 10 10 10 11 11
8 8 9 9 9 9 9 8 8 7 8 7 7 7 7 7 5 5 5 5 5 5 6 6 3 2 3 6 3 5 6 6 7 11 10 9 9 9 10 10 10 10 11
9 9 8 9 9 8 8 8 8 8 8 7 7 7 7 6 6 6 5 5 5 5 6 7 5 5 5 5 5 6 7 6 6 8 9 9 9 9 9 9 9 10 10
7 8 8 8 8 7 7 7 7 6 6 6 5 5 5 5 5 5 5 5 5 5 5 6 7 5 5 4 5 6 7 5 7 5 9 9 9 8 8 9 9 9 9
6 7 7 6 6 6 6 6 6 5 5 4 3 3 3 3 4 4 4 4 5 5 5 6 6 5 4 4 4 5 5 4 5 6 4 4 7 9 10 9 9 9 9
5 5 5 5 4 4 4 4 4 4 4 3 3 3 2 2 1 2 3 3 4 4 5 5 5 5 4 3 4 4 5 5 4 4 5 5 5 6 7 10 10 8 7
4 4 5 5 4 2 4 4 2 3 3 3 3 3 3 3 3 3 1 1 2 3 4 4 4 4 4 4 4 5 5 5 5 2 4 6 5 6 6 5 2 4 5
5 5 5 5 4 5 7 6 4 2 2 2 2 2 2 2 3 3 4 4 1 2 3 4 4 4 4 4 5 6 5 6 6 6 5 7 6 6 6 2 3 2 3
5 6 5 5 5 6 7 6 6 3 3 3 2 1 0 1 0 1 2 2 1 1 0 0 1 3 4 5 5 5 6 6 7 4 4 7 6 6 6 5 2 3 3
6 6 6 6 6 7 7 6 5 4 4 4 4 5 3 2 3 1 1 2 2 2 5 6 5 4 5 6 6 4 4 5 6 4 2 5 6 6 6 6 2 4 5
6 6 7 7 8 7 8 6 4 4 5 4 5 6 10 7 6 4 2 2 3 3 2 3 3 2 3 4 3 4 4 5 5 4 4 5 6 6 6 4 4 4 5
Wind_Direction
165 155 147 155 170 152 164 172 156 141 151 153 154 150 147 132 128 136 128 149 158 163 165 164 165 163 165 167 169 168 165 162 157 157 157 159 158 156 156 156 155 154 153
163 164 164 169 170 170 161 170 157 162 170 146 151 142 164 148 131 155 139 151 167 174 177 176 178 180 181 182 185 182 179 176 173 173 173 172 173 175 174 173 172 172 172
170 181 171 179 172 165 161 185 172 179 177 169 155 154 159 158 145 159 155 159 163 172 180 185 189 195 197 195 193 192 190 188 186 186 187 187 188 190 192 191 189 188 189
183 193 186 182 168 182 183 175 199 189 178 177 158 166 148 154 161 173 176 176 175 166 171 183 197 205 208 207 204 202 199 197 196 197 196 196 199 201 203 203 201 202 202
189 199 194 170 185 190 189 198 175 200 184 184 171 171 180 178 174 186 184 187 180 187 172 168 188 205 212 214 213 212 208 204 204 205 206 206 208 208 209 209 210 210 211
194 200 193 183 200 194 188 195 175 198 200 197 205 160 189 191 200 182 203 192 191 196 198 180 188 194 203 213 218 219 216 212 210 211 213 214 215 213 211 213 215 215 218
194 202 206 183 208 199 195 195 195 186 198 190 194 187 187 203 200 195 212 211 199 199 199 197 217 210 186 198 212 220 221 218 214 214 215 217 218 216 214 217 218 219 221
201 201 208 204 204 198 198 202 202 211 195 191 215 211 203 191 206 206 202 211 215 202 201 205 207 215 238 203 181 202 219 222 220 217 217 218 219 218 216 219 221 222 225
205 214 204 213 208 210 199 203 202 211 209 203 224 241 245 222 187 180 205 213 217 222 222 208 208 207 221 225 202 191 205 216 223 223 221 219 219 217 217 220 223 225 228
206 208 209 211 214 216 201 209 207 215 219 214 206 240 276 330 280 194 192 191 205 220 233 233 217 208 216 221 209 196 195 209 220 227 227 222 219 219 219 223 227 229 231
208 208 208 210 212 216 209 219 207 221 218 227 222 213 217 225 249 263 233 203 197 203 208 222 229 228 218 222 217 201 188 206 217 224 228 226 223 222 224 227 231 233 235
206 208 208 208 211 213 208 214 215 214 224 230 237 232 223 226 232 241 242 234 224 206 201 219 228 224 222 222 219 164 187 208 217 222 225 226 227 227 228 231 234 236 237
202 205 206 206 209 211 213 213 212 218 216 218 226 232 236 243 254 255 257 253 253 224 204 217 217 225 226 224 208 170 201 211 219 223 226 228 230 232 233 233 235 238 241
205 202 204 205 209 210 212 209 212 209 210 216 224 230 238 239 240 247 259 267 259 243 221 227 207 214 227 228 198 188 214 202 216 223 227 228 230 232 233 232 233 236 238
206 203 205 205 207 209 211 206 214 211 208 214 216 212 231 233 237 243 250 258 269 270 252 209 223 196 221 230 183 224 236 198 206 219 226 228 230 231 233 233 234 235 237
207 200 204 206 205 206 206 209 207 208 212 215 224 227 234 236 233 238 245 249 259 272 279 272 233 228 235 256 190 235 240 187 202 216 223 227 230 233 233 234 236 237 238
201 201 203 203 203 204 204 206 215 204 213 215 220 222 228 241 236 236 235 240 244 253 265 270 261 244 236 265 250 250 245 236 219 201 212 223 230 234 236 237 238 239 241
198 198 199 201 203 202 201 203 212 209 214 217 222 224 230 227 227 243 243 245 247 249 257 269 271 261 246 248 254 258 257 245 251 182 196 215 227 232 235 237 240 242 244
194 195 195 198 199 199 201 206 208 213 215 218 221 222 229 230 231 237 241 249 250 244 245 258 262 264 261 259 259 256 256 263 266 211 194 205 215 224 231 235 240 243 245
180 183 187 190 192 198 203 204 205 210 214 210 207 214 224 227 235 244 244 254 258 260 249 251 259 259 257 259 264 270 265 244 259 269 256 231 210 214 224 229 234 239 243
169 172 173 171 175 187 196 189 193 193 191 190 186 192 194 189 193 251 268 261 256 256 255 254 261 266 267 271 269 275 278 279 264 269 272 263 241 241 229 222 225 233 240
153 150 152 149 143 139 102 113 168 182 182 184 182 184 184 185 185 184 214 3 334 277 274 277 276 280 290 290 296 289 289 286 279 280 284 280 274 271 270 268 176 196 233
123 121 121 120 113 90 90 98 104 144 157 170 185 193 208 183 193 192 175 168 105 21 334 298 300 310 311 322 310 297 297 298 297 309 301 285 284 281 281 279 142 192 240
108 103 100 102 97 82 85 101 109 118 104 89 78 91 170 275 334 198 194 166 152 87 353 321 336 338 351 348 328 306 302 286 271 263 284 286 295 298 304 307 158 187 237
109 104 101 96 93 81 75 90 114 115 97 80 61 45 37 56 40 34 149 140 129 112 94 86 73 62 51 32 356 322 314 301 298 301 330 300 308 310 300 289 256 202 234
115 110 98 90 88 81 65 68 100 112 104 95 78 63 53 50 41 37 87 102 97 76 70 99 96 85 56 55 34 358 334 316 313 313 17 330 315 319 305 298 305 300 280